Location: Falconara Alta
(43.6167°N, 13.4000°E)
Time: 19:01:20
(UTC+00:00)

BREEZE-M DEB (TANK) - Pass Details

Date: 09 April 2020
Orbit: 320 x 11934 km, 49.7° (Epoch: 02 June)

Event Time Altitude Azimuth Distance (km) Brightness Sun altitude
Rises 18:38:36 0° 293° (WNW) 5,529 10.8 -10.4°
Reaches altitude 10° 18:43:43 10° 296° (WNW) 3,250 8.9 -11.3°
Maximum altitude 18:49:58 62° 18° (NNE) 627 3.7 -12.3°
Enters shadow 18:51:46 21° 95° (E) 1,032 4.2 -12.6°
